{"data":{"norad_id":58859,"epoch":"2026-09-20T04:17:39.125184Z","epoch_age_seconds":180272,"freshness":"STALE","line1":"1 58859U 24019G   26263.17892506  .00001187  00000+0  52659-4 0  9995","line2":"2 58859  43.0039 230.8436 0001278 263.8688  96.2019 15.27577855148823","mean_motion":15.27577855,"eccentricity":0.0001278,"inclination_deg":43.0039,"raan_deg":230.8436,"arg_perigee_deg":263.8688,"mean_anomaly_deg":96.2019,"bstar":5.2659e-5,"rev_number":14882,"period_min":94.266881081488,"perigee_km":482.17865854491,"apogee_km":483.93237935275,"semimajor_km":6861.1925189488,"source":"CELESTRAK","updated_at":"2026-09-21T09:00:33.988064Z"}}